This is the latest recevied weather packets stored in our database for station/object K2CAT. If no packets are shown the sender has not sent any weather packets the latest 10 day(s).
| Time | Temp. | Humidity | Pressure | Rain* | Wind** | Luminosity | Snow |
|---|---|---|---|---|---|---|---|
| 1777491145 | 19.44° C | 51% | 1010.9 hPa | 0 mm | - | 219 W/m² | - |
| 1777490840 | 19.44° C | 51% | 1010.8 hPa | 0 mm | - | 240 W/m² | - |
| 1777490536 | 19.44° C | 50% | 1011.1 hPa | 0 mm | - | 241 W/m² | - |
| 1777490233 | 19.44° C | 51% | 1011.3 hPa | 0 mm | - | 203 W/m² | - |
| 1777489930 | 19.44° C | 50% | 1011.2 hPa | 0 mm | - | 226 W/m² | - |
| 1777489628 | 19.44° C | 52% | 1011.4 hPa | 0 mm | - | 283 W/m² | - |
| 1777489324 | 19.44° C | 50% | 1011.2 hPa | 0 mm | - | 262 W/m² | - |
| 1777489021 | 18.89° C | 51% | 1011.5 hPa | 0 mm | - | 230 W/m² | - |
| 1777488718 | 19.44° C | 53% | 1011.7 hPa | 0 mm | - | 246 W/m² | - |
| 1777488415 | 18.89° C | 53% | 1011.7 hPa | 0 mm | - | 221 W/m² | - |
| 1777488114 | 18.89° C | 51% | 1011.7 hPa | 0 mm | - | 258 W/m² | - |
| 1777487812 | 18.89° C | 54% | 1011.7 hPa | 0 mm | - | 279 W/m² | - |
| 1777487509 | 18.33° C | 52% | 1011.7 hPa | 0 mm | - | 250 W/m² | - |
| 1777487206 | 18.33° C | 51% | 1011.8 hPa | 0 mm | - | 201 W/m² | - |
| 1777486902 | 18.33° C | 52% | 1012.2 hPa | 0 mm | - | 223 W/m² | - |
| 1777486599 | 18.33° C | 53% | 1012 hPa | 0 mm | - | 192 W/m² | - |
| 1777486297 | 17.78° C | 53% | 1012.2 hPa | 0 mm | - | 171 W/m² | - |
| 1777485994 | 18.33° C | 53% | 1012.3 hPa | 0 mm | - | 129 W/m² | - |
| 1777485691 | 18.33° C | 55% | 1012.2 hPa | 0 mm | - | 131 W/m² | - |
| 1777485386 | 18.89° C | 55% | 1012.1 hPa | 0 mm | - | 164 W/m² | - |
| 1777485082 | 18.89° C | 53% | 1012.2 hPa | 0 mm | - | 190 W/m² | - |
| 1777484780 | 18.89° C | 54% | 1012.4 hPa | 0 mm | - | 286 W/m² | - |
| 1777484476 | 19.44° C | 52% | 1012.3 hPa | 0 mm | - | 295 W/m² | - |
| 1777484174 | 18.89° C | 50% | 1012.4 hPa | 0 mm | - | 314 W/m² | - |
| 1777483869 | 18.89° C | 56% | 1012.5 hPa | 0 mm | - | 415 W/m² | - |
* Rain latest hour (hover to see other rain measurements)
** Current wind speed in m/s (hover to see current wind gust speed)